Regional Weather Roundup
Issued by NWS Grand Forks, ND

Home | Current Version | Previous Version | Graphics & Text | Print | Product List | Glossary On
Versions: 1 2 3 4 5 6 7 8 9 10 11 12 13 14 15 16 17 18 19 20 21 22 23 24 25 26 27 28 29 30 31 32 33 34 35 36 37 38 39 40 41 42 43 44 45 46 47 48 49 50
000
ASUS43 KFGF 040431
RWRFGF
PRAIRIE TO PINES  WEATHER ROUNDUP
NATIONAL WEATHER SERVICE EASTERN NORTH DAKOTA/GRAND FORKS ND
1100 PM CDT THU SEP 03 2015

 **SATELLITE DATA USED TO AUGMENT SKY COVER AT AUTOMATED STATIONS**
 *****  WEATHER ACROSS EASTERN NORTH DAKOTA  *****

CITY           SKY/WX    TMP DP  RH WIND       PRES   REMARKS
GRAND FORKS    CLOUDY    81  73  76 S16G25    29.75R
GRAND FRKS AFB CLOUDY    80  73  80 S15       29.76R
GRAND FRKS NWS   N/A     79 N/A N/A S16         N/A
DEVILS LAKE    CLOUDY    79  64  61 SE12      29.74R
FARGO          MOCLDY    80  73  79 SE15      29.79S
WAHPETON ARPT  PTCLDY    77  70  78 SE13      29.81S
$$

 ***** WEATHER ACROSS CENTRAL AND WESTERN NORTH DAKOTA  *****

CITY           SKY/WX    TMP DP  RH WIND       PRES   REMARKS
BISMARCK       CLOUDY    85  58  39 S21       29.69S
MINOT          MOCLDY    75  70  84 NW9       29.72R
JAMESTOWN      CLOUDY    79  72  79 S13       29.76R
MINOT AFB      MOCLDY    75  72  89 NW12      29.71R
GARRISON         N/A     71  66  84 N6        29.72S
WILLISTON      CLOUDY    71  53  52 N14       29.78S
DICKINSON      PTCLDY    74  61  63 NE10      29.72F
HETTINGER      CLEAR     71  53  52 SE5       29.73F
$$

 *****  OTHER AIRPORT OBSERVATIONS IN OUR AREA  *****

CITY           SKY/WX    TMP DP  RH WIND       PRES   REMARKS
WALHALLA       FAIR      81  77  89 MISG      29.72R
GRAFTON AIRPOR FAIR      81  73  78 S15       29.76R
VALLEY CITY AR FAIR      77  77 100 S13G22    29.78S
CANDO          FAIR      81  66  61 S16G22    29.72S
CAVALIER APRT  FAIR      81  73  78 S17       29.73S
GWINNER          N/A     79  79 100 SE9       29.79F
SHEYENNE NWR     N/A     77  74  91 SE7       29.95S
ROLLA          FAIR      81  63  54 S12G17    29.73R THUNDER
 ***** THE ABOVE OBSERVATIONS ARE NON NWS ARE NOT QUALITY
       CONTROLLED AND MAY MIS-REPORT RAIN FOR SNOW...
$$

  *****  WEATHER ACROSS NORTHERN MINNESOTA  *****

CITY           SKY/WX    TMP DP  RH WIND       PRES   REMARKS
FLAG ISLAND    CLEAR     72  64  78 S16       29.84R
WARROAD        CLEAR     73  66  78 SE16      29.83S
ROSEAU         LGT RAIN  75  68  78 SE13G22   29.79F
HALLOCK        PTCLDY    81  72  74 S21G26    29.75R
THF RVR FALLS  MOCLDY    75  72  88 SE12      29.82S
BAUDETTE       CLEAR     70  62  76 SE12      29.87S
WASKISH        CLEAR     70  64  83 SE8       29.88S
CROOKSTON      CLOUDY    79  72  78 S16       29.80S
STEPHEN NDAWN    N/A     81  72  74 S13         N/A
GREENBUSH NDAW   N/A     75  70  83 S13         N/A
$$
  *****  WEATHER ACROSS CENTRAL AND WEST MINNESOTA  *****

CITY           SKY/WX    TMP DP  RH WIND       PRES   REMARKS
FOSSTON        PTCLDY    72  66  83 SE12      29.86R
BEMIDJI        CLEAR     70  67  89 SE10      29.90S
PARK RAPIDS    CLEAR     73  67  81 SE8       29.90S
ELBOW LAKE     FAIR      75  73  91 SE12      29.84S
WADENA         MOCLDY    73  70  88 SE9       29.89S
DETROIT LAKES  CLEAR     73  70  88 SE15      29.87F
MOORHEAD       MOCLDY    79  73  83 SE8       29.81S
FERGUS FALLS   CLEAR     77  72  83 SE13      29.82S
MORRIS MN      CLEAR     77  73  88 SE13G18   29.83S
STAPLES        PTCLDY    72  66  83 SE6       29.90F
$$
  *****  WEATHER ELSEWHERE ACROSS MINNESOTA  *****

CITY           SKY/WX    TMP DP  RH WIND       PRES   REMARKS
DULUTH         CLEAR     58  52  80 E5        29.99S
INTRNTL FALLS  CLEAR     64  60  87 SE8       29.92S
ELY            CLEAR     57  48  72 CALM      30.00S
CLOQUET        CLEAR     57  52  82 CALM      29.98S
WHEATON        PTCLDY    73  72  94 E12       29.82F
BRAINERD       CLEAR     69  66  90 VRB5      29.92S
HIBBING        CLEAR     57  50  77 SE7       29.98S
ALEXANDRIA     PTCLDY    74  71  91 SE12G21   29.89F
SAINT CLOUD    CLEAR     73  69  87 E6        29.90S
MINNEAPOLIS    CLEAR     76  70  82 E12       29.90S
$$

  *****  WEATHER ACROSS SOUTH DAKOTA  *****

CITY           SKY/WX    TMP DP  RH WIND       PRES   REMARKS
SIOUX FALLS    MOCLDY    79  72  79 SE9       29.81F
BROOKINGS      MOCLDY    73  70  88 SE12      29.84F
WATERTOWN      PTCLDY    76  71  85 SE8       29.82F
HURON          MOCLDY    77  72  84 SE12      29.74F
SISSETON         N/A     77  74  90 S8        29.79F
ABERDEEN       MOCLDY    77  71  82 SE8       29.76F
MITCHELL       MOCLDY    77  73  87 SE8       29.76S
PIERRE         CLOUDY    79  71  76 E10       29.70S
MOBRIDGE       MOCLDY    76  72  87 E3        29.72S
RAPID CITY     CLOUDY    79  50  36 S13       29.78S
$$

  *****  SOME WEATHER IN NEARBY STATES *****

CITY           SKY/WX    TMP DP  RH WIND       PRES   REMARKS
GLASGOW MT     MOCLDY    66  36  32 NE23      29.84F
GREAT FALLS MT LGT RAIN  50  49  96 E8        29.99F
CHEYENNE WY    PTCLDY    58  47  66 W7        30.04S
SCOTTSBLUFF NE LGT RAIN  69  60  73 CALM      29.91F
OMAHA NE       MOCLDY    81  69  67 S14       29.84S
DES MOINES IA  PTCLDY    79  70  74 SE7       29.89S
DAVENPORT IA   CLEAR     73  70  90 S5        29.93S
CHICAGO IL     MOCLDY    72  67  84 E9        29.96R
EAU CLAIRE WI  PTCLDY    71  65  81 E8        29.95R
LA CROSSE WI   CLEAR     76  69  79 SE6       29.93R
$$

  *****  SOME NATIONAL WEATHER *****

CITY           SKY/WX    TMP DP  RH WIND       PRES   REMARKS
LA GUARDIA NY  MOCLDY    83  65  54 CALM      29.88S
RALEIGH NC     PTCLDY    72  67  84 CALM      29.93S
ATLANTA GA     PTCLDY    73  67  81 N5        29.98S
NEW ORLEANS LA PTCLDY    79  74  84 S5        29.95R
OKLAHOMA CITY  PTCLDY    73  64  73 S5        29.91S
ALBUQUERQUE NM CLOUDY    78  45  30 S15       30.09R
SALT LAKE CITY PTCLDY    83  32  16 S17G25    29.77R
LOS ANGELES CA CLEAR     68  56  65 W5        29.85R
BOISE ID       MOCLDY    64  39  39 NW7       29.85R
SEATTLE WA     MOCLDY    58  49  72 NW6       30.01R
$$

*** WEATHER ACROSS MANITOBA...SASKATCHEWAN AND ONTARIO ***
                ***ONTARIO***

CITY           SKY/WX    TMP DP  RH WIND       PRES   REMARKS
GERALDTON      CLEAR     59  57  94 VRB2      30.06R
THUNDER BAY    CLEAR     59  55  88 NE3       30.03R
SIOUX LOOKOUT  PTCLDY    68  57  68 S8        29.95
TORONTO        MOCLDY    72  64  78 NE5       29.99R
BIG TROUT LK   CLEAR     72  57  60 S8        29.83F
PICKLE LAKE    NOT AVBL
DRYDEN         CLEAR     70  59  68 S13       29.93R
KENORA         PTCLDY    73  63  68 S15G22    29.86S
$$
                *** MANITOBA***

CITY           SKY/WX    TMP DP  RH WIND       PRES   REMARKS
BRANDON        MOCLDY    73  70  88 NE9       29.72R
DAUPHIN        CLOUDY    68  66  94 N8        29.78S
ISLAND LAKE    MOCLDY    66  64  94 CALM      29.77R
PILOT MOUND      N/A     82  66  57 S17         N/A
THE PAS        PTCLDY    63  52  67 NW15G21   29.86R
THOMPSON       PTCLDY    64  55  72 NW8       29.76R
WINNIPEG       CLEAR     79  72  78 SE16      29.71S
LYNN LAKE      CLEAR     54  45  71 W7        29.81R
CHURCHILL      LGT RAIN  50  48  93 E13G22    29.77R
$$
                ***SASKATCHEWAN***

CITY           SKY/WX    TMP DP  RH WIND       PRES   REMARKS
ESTEVAN        CLOUDY    70  50  49 N14G21    29.80S
KINDERSLEY     CLOUDY    52  41  66 S2        29.98R
LLOYDMINSTER   MOCLDY    46  37  71 N5        30.01R
PRINCE ALBERT  CLOUDY    52  46  82 NW3       29.94S
REGINA         PTCLDY    52  43  71 NW10      29.90R
YORKTON        PTCLDY    63  46  55 N10       29.86S
N. BATTLEFORD  PTCLDY    52  43  71 N12       29.98S
LA RONGE       MOCLDY    54  45  71 W6        29.94R
SASKATOON      CLOUDY    48  46  93 N3        29.96S
SWIFT CURRENT  CLOUDY    52  45  76 N6        30.00R
$$
NOTE: THESE ARE AUTOMATED STATIONS WITH LIMITED QUALITY CONTROL
      "FAIR" INDICATES FEW OR NO CLOUDS BELOW 12,000 FEET WITH NO
      SIGNIFICANT WEATHER AND/OR OBSTRUCTIONS TO VISIBILITY.
      SKY/WX - SKY CONDITION AND SIGNIFICANT WEATHER.
      TMP - AIR TEMPERATURE.    DP   - DEWPOINT TEMPERATURE.
      RH  - RELATIVE HUMIDITY.  PRES - PRESSURE.
      HX  - HEAT INDEX.         WCI  - WIND CHILL INDEX.
$


USA.gov is the U.S. government's official web portal to all federal, state and local government web resources and services.